星链-31720 (STARLINK-31720 )

导读 | 豆包AI

STARLINK-31720是美国太空探索技术公司(SpaceX)发射的星链卫星,于北京时间2024年4月13日发射入轨,属于星链低轨互联网星座部署计划的组成部分,旨在提供全球覆盖的高速卫星互联网服务,目前已在预定轨道运行,参与星链网络的全球组网进程。

基本信息
目录编号:
59497
目录名称:
STARLINK-31720
国际标识:
2024-071P
轨道中心:
EARTH
卫星名称:
星链-31720
卫星全名:
星链-31720 (STARLINK-31720 )
卫星状态:
在轨 (已飞行747 天)
发射日期:
2024-04-13 UTC
国别 :
美国 (US)
星等 :
--
轨道信息
数据来源 国际轨道数据
星历时间: 2026-04-29T20:25:08+0800
11小时前
查看轨道信息
半长轴: 6861.209km
偏心率: 0.0000825
轨道倾角: 43.002°
近地点辐角 255.961°
升交点赤经 53.167°
平近点角 104.115°
近地点: 482.505km
远地点: 483.639km
周期: 94.267分钟
每日圈数: 15.275726
详细信息
固有亮度:
5
最大亮度:
1.5
卫星平台:
Starlink v2.0 mini
覆盖范围:
全球
运营商:
太空探索技术公司
运营商所在国:
美国
制造商(研发单位):
太空探索技术公司
制造商所在国:
美国
使用方式:
暂无
卫星简介
星链(Starlink)计划是由太空探索技术公司(SpaceX)提出的一个巨型低轨卫星互联网星座项目,计划在2019年至2024年间在太空搭建由约1.2万颗卫星组成的“星链”网络,其中1584颗将部署在地球上空550千米处的近地轨道,并从2020年开始工作。该卫星仍在工作。
2D轨道图
3D轨道图
轨道高度分析图
轨道倾角分析图
轨道综合分析图
查看轨道综合分析图